Weather History for Seattle, WA

Change the Weather History Date:

Thursday, November 16, 2006

  Actual Average Record
Temperature  
Mean Temperature 45 °F 45 °F  
Max Temperature 51 °F 51 °F 68 °F (1965)
Min Temperature 38 °F 40 °F 21 °F (1955)
Degree Days  
Heating Degree Days 20 20  
Month to date heating degree days 262 288  
Since 1 July heating degree days 824 885  
Cooling Degree Days 0 0  
Month to date cooling degree days 0 0  
Year to date cooling degree days 270 189  
Moisture  
Dew Point 35 °F    
Average Humidity 69    
Maximum Humidity 85    
Minimum Humidity 53    
Precipitation  
Precipitation T in 0.23 in 1.08 in (1988)
Month to date precipitation 11.63 3.42  
Year to date precipitation 37.12 28.99  
Snow  
Snow 0.00 in - T in (1994)
Month to date snowfall  
Since 1 July snowfall  
Snow Depth -    
Sea Level Pressure  
Sea Level Pressure 30.01 in    
Wind  
Wind Speed 10 mph (SSW)    
Max Wind Speed 20 mph    
Max Gust Speed 24 mph    
Visibility 10 miles    
Events      
T = Trace of Precipitation, MM = Missing Value Source: NWS Daily Summary

Daily Weather History Graph

Daily Weather History Graph

Search for Another Location

Airport:

Trip Planner

Search our weather history database for the weather conditions in past years. The results will help you decide how hot, cold, wet, or windy it might be!

Date:

Astronomy

Nov. 16, 2006 Rise Set
Actual Time 7:15 AM PST 4:32 PM PST
Civil Twilight 6:41 AM PST 5:05 PM PST
Nautical Twilight 6:04 AM PST 5:43 PM PST
Astronomical Twilight 5:28 AM PST 6:19 PM PST
Moon 2:53 AM PST (11/16) 2:36 PM PST (11/16)
Length of Visible Light 10h 23m
Length of Day
9h 16m
Waning Crescent, 15% of the Moon is Illuminated
Nov 16
Waning Crescent
Nov 20
New
Nov 27
First Quarter
Dec 4
Full
Dec 12
Last Quarter

Hourly Weather History & Observations

Time (PST) Temp. Windchill Dew Point Humidity Pressure Visibility Wind Dir Wind Speed Gust Speed Precip Events Conditions
12:53 AM 43.0 °F 37.2 °F 34.0 °F 71% 29.77 in 10.0 mi SSW 10.4 mph - N/A   Scattered Clouds
1:53 AM 39.0 °F 32.8 °F 35.1 °F 86% 29.82 in 10.0 mi South 9.2 mph - N/A   Scattered Clouds
2:53 AM 41.0 °F 34.7 °F 35.1 °F 79% 29.86 in 10.0 mi SSW 10.4 mph - N/A   Scattered Clouds
3:53 AM 39.9 °F 34.5 °F 34.0 °F 79% 29.88 in 10.0 mi South 8.1 mph - N/A   Mostly Cloudy
4:53 AM 39.9 °F 33.9 °F 34.0 °F 79% 29.91 in 10.0 mi SSW 9.2 mph - N/A   Scattered Clouds
5:53 AM 39.9 °F 34.5 °F 35.1 °F 83% 29.94 in 10.0 mi SSW 8.1 mph - N/A   Scattered Clouds
6:53 AM 39.9 °F 35.8 °F 35.1 °F 83% 29.96 in 10.0 mi SSW 5.8 mph - N/A   Scattered Clouds
7:53 AM 39.9 °F 34.5 °F 35.1 °F 83% 29.98 in 10.0 mi SSW 8.1 mph - N/A   Partly Cloudy
8:53 AM 43.0 °F 36.8 °F 37.0 °F 80% 30.01 in 10.0 mi SSW 11.5 mph - N/A   Scattered Clouds
9:53 AM 45.0 °F 38.5 °F 37.9 °F 76% 30.04 in 10.0 mi SW 13.8 mph - N/A   Scattered Clouds
10:53 AM 46.9 °F - 39.0 °F 74% 30.06 in 10.0 mi SSW 10.4 mph - N/A   Scattered Clouds
11:53 AM 48.9 °F - 37.9 °F 66% 30.05 in 10.0 mi South 12.7 mph - N/A   Scattered Clouds
12:53 PM 51.1 °F - 37.0 °F 59% 30.04 in 10.0 mi SW 12.7 mph - N/A   Scattered Clouds
1:53 PM 50.0 °F - 37.9 °F 63% 30.04 in 10.0 mi SW 9.2 mph - N/A   Scattered Clouds
2:53 PM 48.9 °F - 39.0 °F 69% 30.04 in 10.0 mi SW 10.4 mph - N/A   Mostly Cloudy
3:53 PM 48.9 °F - 37.0 °F 64% 30.06 in 10.0 mi SSW 12.7 mph - 0.00 in   Mostly Cloudy
4:53 PM 46.9 °F - 36.0 °F 66% 30.07 in 10.0 mi South 8.1 mph - N/A   Mostly Cloudy
5:53 PM 46.0 °F 41.0 °F 36.0 °F 68% 30.07 in 10.0 mi SSE 10.4 mph - N/A   Mostly Cloudy
6:53 PM 46.9 °F - 36.0 °F 66% 30.08 in 10.0 mi SE 9.2 mph - N/A   Mostly Cloudy
7:53 PM 46.0 °F 40.6 °F 33.1 °F 61% 30.09 in 10.0 mi SSE 11.5 mph - N/A   Mostly Cloudy
8:53 PM 46.9 °F - 30.9 °F 54% 30.09 in 10.0 mi SSE 11.5 mph - N/A   Mostly Cloudy
9:53 PM 46.9 °F - 30.9 °F 54% 30.09 in 10.0 mi South 9.2 mph - N/A   Mostly Cloudy
10:53 PM 46.0 °F 42.5 °F 34.0 °F 63% 30.10 in 10.0 mi SW 6.9 mph - N/A   Overcast
11:53 PM 43.0 °F 39.5 °F 33.1 °F 68% 30.10 in 10.0 mi SSW 5.8 mph - N/A   Mostly Cloudy